TKJ368 LTAC-LTFM

Flight info

Callsign TKJ368
Flight time N/A
Altitude 28000
Route YAVRU A4 ERSEN
Aircraft B738/M-SDE2E3FGHIRWXY/LB1

Departure

Time 2026-04-30 15:14
Airport Esenboğa International Airport (LTAC)

Arrival

Time N/A
Airport İstanbul Airport (LTFM)
Time Latitude Longitude Altitude Speed Heading
2026-04-30 14:56 40.11714 32.99628 3150 ft 0 kts 180°
2026-04-30 15:01 40.11715 32.99628 3150 ft 1 kts 180°
2026-04-30 15:01 40.11746 32.99628 3150 ft 2 kts 180°
2026-04-30 15:02 40.11760 32.99628 3151 ft 2 kts 186°
2026-04-30 15:02 40.11774 32.99636 3151 ft 2 kts 219°
2026-04-30 15:03 40.11786 32.99674 3152 ft 1 kts 272°
2026-04-30 15:03 40.11786 32.99675 3152 ft 0 kts 272°
2026-04-30 15:05 40.11786 32.99671 3152 ft 1 kts 272°
2026-04-30 15:06 40.11789 32.99549 3149 ft 10 kts 268°
2026-04-30 15:06 40.11768 32.99379 3147 ft 11 kts 256°
2026-04-30 15:07 40.11716 32.99192 3143 ft 13 kts 256°
2026-04-30 15:07 40.11822 32.99044 3140 ft 14 kts 348°
2026-04-30 15:08 40.11976 32.99163 3142 ft 23 kts 36°
2026-04-30 15:08 40.12371 32.99542 3147 ft 24 kts 37°
2026-04-30 15:09 40.12638 32.99793 3148 ft 28 kts 36°
2026-04-30 15:09 40.12916 33.00064 3150 ft 26 kts 39°
2026-04-30 15:10 40.13161 33.00292 3154 ft 24 kts 36°
2026-04-30 15:11 40.13623 33.00732 3153 ft 23 kts 36°
2026-04-30 15:11 40.13870 33.00970 3154 ft 27 kts 35°
2026-04-30 15:12 40.14121 33.00913 3149 ft 18 kts 302°
2026-04-30 15:13 40.14199 33.00664 3144 ft 18 kts 206°
2026-04-30 15:14 40.13430 32.99945 3138 ft 140 kts 215°
2026-04-30 15:14 40.10903 32.97535 4749 ft 193 kts 218°
2026-04-30 15:16 40.05274 32.92228 7452 ft 253 kts 218°
2026-04-30 15:17 40.02920 32.85799 10243 ft 264 kts 274°
2026-04-30 15:18 40.07634 32.75717 12434 ft 342 kts 306°
2026-04-30 15:19 40.11471 32.69134 14620 ft 354 kts 304°